Tracking 22993 objects as of 9-May-2021
HD Live streaming from Space Station
objects crossing your sky now

COSMOS 397 DEB

Track COSMOS 397 DEB now!
10-day predictions


NORAD ID: 5017
Int'l Code: 1971-015L
Perigee: 551.1 km
Apogee: 1,710.8 km
Inclination: 65.7 °
Period: 107.8 minutes
Semi major axis: 7501 km
RCS: 0.3524 m2 (medium)
Launch date: February 25, 1971
Source: Commonwealth of Independent States (former USSR) (CIS)
Launch site: TYURATAM MISSILE AND SPACE COMPLEX (TTMTR)

Note: This is SATELLITE DEBRIS
aabbcc
Your satellite tracking list
Your tracking list is empty




NASA's NSSDC Master Catalog

Two Line Element Set (TLE):
1 05017U 71015L   21129.54442428  .00000386  00000-0  15975-3 0  9992
2 05017  65.7114 180.6189 0772923 242.0989 109.9732 13.36107455389507
Source of the keplerian elements: AFSPC